timestamp,wind_dir_avg,wind_spd_avg,wind_spd_max_dir,wind_spd_gust,battery_voltage,lat,long
2022-02-21 00:04:00+00:00,284.0,4.92,282.0,5.63,12.49,47.59359,-54.27349
2022-02-21 00:14:00+00:00,297.0,4.0,304.0,4.95,12.41,47.59359,-54.27349
2022-02-21 00:24:00+00:00,302.0,5.53,296.0,6.44,12.41,47.59359,-54.27349
2022-02-21 00:34:00+00:00,313.0,5.94,320.0,6.86,12.41,47.59359,-54.27349
2022-02-21 00:44:00+00:00,317.0,5.83,323.0,6.65,12.41,47.59359,-54.27349
2022-02-21 00:54:00+00:00,309.0,5.59,311.0,6.08,12.41,47.59359,-54.27349
2022-02-21 01:04:00+00:00,306.0,7.31,302.0,8.51,12.41,47.59359,-54.27349
2022-02-21 01:14:01+00:00,305.0,7.08,307.0,8.07,12.41,47.59359,-54.27349
2022-02-21 01:24:01+00:00,313.0,6.58,309.0,7.8,12.41,47.59359,-54.27349
2022-02-21 01:34:01+00:00,315.0,6.58,321.0,7.82,12.41,47.59359,-54.27349
2022-02-21 01:44:01+00:00,314.0,7.31,313.0,8.23,12.41,47.59359,-54.27349
2022-02-21 01:54:01+00:00,314.0,4.9,312.0,5.73,12.41,47.59359,-54.27349
2022-02-21 02:04:01+00:00,308.0,6.02,306.0,7.22,12.41,47.59359,-54.27349
2022-02-21 02:14:00+00:00,287.0,5.48,285.0,6.77,12.41,47.59359,-54.27349
2022-02-21 02:24:00+00:00,294.0,5.74,295.0,6.73,12.41,47.59359,-54.27349
2022-02-21 02:34:00+00:00,293.0,5.81,290.0,8.31,12.41,47.59359,-54.27349
2022-02-21 02:44:00+00:00,309.0,5.93,306.0,9.24,12.41,47.59359,-54.27349
2022-02-21 02:54:00+00:00,320.0,5.32,305.0,6.82,12.41,47.59359,-54.27349
2022-02-21 03:04:00+00:00,298.0,5.38,288.0,8.56,12.41,47.59359,-54.27349
2022-02-21 03:14:01+00:00,318.0,3.78,301.0,6.07,12.33,47.59359,-54.27349
2022-02-21 03:24:01+00:00,315.0,3.47,302.0,5.33,12.33,47.59359,-54.27349
2022-02-21 03:34:01+00:00,310.0,4.09,300.0,6.11,12.33,47.59359,-54.27349
2022-02-21 03:44:01+00:00,305.0,5.54,296.0,8.67,12.33,47.59359,-54.27349
2022-02-21 03:54:01+00:00,310.0,3.58,290.0,5.63,12.33,47.59359,-54.27349
2022-02-21 04:04:01+00:00,305.0,4.01,292.0,8.01,12.33,47.59359,-54.27349
2022-02-21 04:14:00+00:00,309.0,3.53,295.0,6.07,12.33,47.59359,-54.27349
2022-02-21 04:24:00+00:00,310.0,4.75,291.0,8.12,12.33,47.59359,-54.27349
2022-02-21 04:34:00+00:00,298.0,4.55,282.0,8.07,12.33,47.59359,-54.27349
2022-02-21 04:44:00+00:00,297.0,6.19,288.0,8.67,12.33,47.59359,-54.27349
2022-02-21 04:54:00+00:00,292.0,5.59,286.0,8.08,12.33,47.59359,-54.27349
2022-02-21 05:04:00+00:00,273.0,7.22,274.0,8.0,12.33,47.59359,-54.27349
2022-02-21 05:14:00+00:00,280.0,3.95,272.0,7.89,12.33,47.59359,-54.27349
2022-02-21 05:24:00+00:00,284.0,3.95,287.0,4.98,12.33,47.59359,-54.27349
2022-02-21 05:34:00+00:00,282.0,2.43,284.0,3.11,12.33,47.59359,-54.27349
2022-02-21 05:44:00+00:00,263.0,2.35,280.0,4.8,12.33,47.59359,-54.27349
2022-02-21 05:54:00+00:00,243.0,4.46,240.0,5.17,12.33,47.59359,-54.27349
2022-02-21 06:04:00+00:00,270.0,4.0,265.0,4.44,12.33,47.59359,-54.27349
2022-02-21 06:14:01+00:00,252.0,4.08,261.0,6.14,12.33,47.59359,-54.27349
2022-02-21 06:24:01+00:00,241.0,4.56,238.0,5.42,12.33,47.59359,-54.27349
2022-02-21 06:34:01+00:00,220.0,3.99,232.0,5.5,12.33,47.59359,-54.27349
2022-02-21 06:44:01+00:00,234.0,3.83,238.0,5.57,12.33,47.59359,-54.27349
2022-02-21 06:54:01+00:00,209.0,4.51,226.0,6.24,12.33,47.59359,-54.27349
2022-02-21 07:04:01+00:00,220.0,4.5,229.0,5.95,12.33,47.59359,-54.27349
2022-02-21 07:14:00+00:00,225.0,3.76,241.0,6.68,12.33,47.59359,-54.27349
2022-02-21 07:24:00+00:00,229.0,7.08,235.0,9.55,12.33,47.59359,-54.27349
2022-02-21 07:34:00+00:00,209.0,5.46,217.0,6.58,12.33,47.59359,-54.27349
2022-02-21 07:44:00+00:00,220.0,5.22,218.0,7.12,12.33,47.59359,-54.27349
2022-02-21 07:54:00+00:00,223.0,5.86,225.0,7.39,12.33,47.59359,-54.27349
2022-02-21 08:04:00+00:00,246.0,10.97,240.0,13.32,12.33,47.59359,-54.27349
2022-02-21 08:14:00+00:00,242.0,11.57,241.0,13.66,12.25,47.59359,-54.27349
2022-02-21 08:24:00+00:00,240.0,13.56,245.0,16.44,12.25,47.59359,-54.27349
2022-02-21 08:34:00+00:00,243.0,13.15,236.0,15.25,12.25,47.59359,-54.27349
2022-02-21 08:44:00+00:00,242.0,12.43,237.0,14.08,12.25,47.59359,-54.27349
2022-02-21 08:54:00+00:00,245.0,13.65,257.0,20.23,12.25,47.59359,-54.27349
2022-02-21 09:04:00+00:00,246.0,12.65,241.0,14.66,12.25,47.59359,-54.27349
2022-02-21 09:14:00+00:00,245.0,12.37,242.0,14.35,12.25,47.59359,-54.27349
2022-02-21 09:24:00+00:00,242.0,13.92,240.0,14.94,12.25,47.59359,-54.27349
2022-02-21 09:34:00+00:00,244.0,11.73,239.0,13.06,12.25,47.59359,-54.27349
2022-02-21 09:44:00+00:00,238.0,12.76,239.0,14.12,12.25,47.59359,-54.27349
2022-02-21 09:54:00+00:00,229.0,10.41,236.0,13.9,12.25,47.59359,-54.27349
2022-02-21 10:04:00+00:00,226.0,10.97,220.0,13.97,12.25,47.59359,-54.27349
2022-02-21 10:14:01+00:00,228.0,9.44,215.0,11.96,12.25,47.59359,-54.27349
2022-02-21 10:24:01+00:00,225.0,12.37,226.0,14.8,12.25,47.59359,-54.27349
2022-02-21 10:34:01+00:00,229.0,11.25,234.0,13.21,12.25,47.59359,-54.27349
2022-02-21 10:44:01+00:00,229.0,13.2,223.0,15.47,12.25,47.59359,-54.27349
2022-02-21 10:54:01+00:00,233.0,13.02,230.0,15.14,12.25,47.59359,-54.27349
2022-02-21 11:04:01+00:00,235.0,12.19,233.0,14.13,12.25,47.59359,-54.27349
2022-02-21 11:14:01+00:00,243.0,12.5,240.0,13.93,12.25,47.59359,-54.27349
2022-02-21 11:24:01+00:00,234.0,12.0,236.0,13.25,12.25,47.59359,-54.27349
2022-02-21 11:34:01+00:00,231.0,10.64,239.0,12.19,12.25,47.59359,-54.27349
2022-02-21 11:44:01+00:00,234.0,11.48,233.0,13.78,12.25,47.59359,-54.27349
2022-02-21 11:54:01+00:00,235.0,11.09,235.0,12.87,12.25,47.59359,-54.27349
2022-02-21 12:04:01+00:00,233.0,12.41,239.0,17.42,12.25,47.59359,-54.27349
2022-02-21 12:14:00+00:00,229.0,13.15,228.0,16.11,13.29,47.59359,-54.27349
2022-02-21 12:24:00+00:00,232.0,13.78,243.0,18.1,13.29,47.59359,-54.27349
2022-02-21 12:34:00+00:00,227.0,12.49,231.0,17.52,13.29,47.59359,-54.27349
2022-02-21 12:44:00+00:00,229.0,13.55,238.0,18.82,13.29,47.59359,-54.27349
2022-02-21 12:54:00+00:00,231.0,12.48,251.0,16.74,13.29,47.59359,-54.27349
2022-02-21 13:04:00+00:00,231.0,13.04,245.0,18.3,13.29,47.59359,-54.27349
2022-02-21 14:14:00+00:00,227.0,14.44,234.0,20.36,13.21,47.59359,-54.27349
2022-02-21 14:24:00+00:00,231.0,13.14,245.0,19.37,13.21,47.59359,-54.27349
2022-02-21 14:34:00+00:00,232.0,15.62,237.0,21.25,13.21,47.59359,-54.27349
2022-02-21 14:44:00+00:00,220.0,13.36,233.0,21.46,13.21,47.59359,-54.27349
2022-02-21 14:54:00+00:00,229.0,14.77,236.0,20.75,13.21,47.59359,-54.27349
2022-02-21 15:04:00+00:00,228.0,14.82,241.0,20.2,13.21,47.59359,-54.27349
2022-02-21 15:14:00+00:00,224.0,13.54,238.0,21.02,13.53,47.59359,-54.27349
2022-02-21 15:24:00+00:00,225.0,13.19,240.0,20.91,13.53,47.59359,-54.27349
2022-02-21 15:34:00+00:00,226.0,12.72,234.0,18.57,13.53,47.59359,-54.27349
2022-02-21 15:44:00+00:00,222.0,12.33,235.0,16.99,13.53,47.59359,-54.27349
2022-02-21 15:54:00+00:00,230.0,13.25,243.0,18.28,13.53,47.59359,-54.27349
2022-02-21 16:04:00+00:00,229.0,14.08,240.0,19.68,13.53,47.59359,-54.27349
2022-02-21 16:14:00+00:00,232.0,14.89,239.0,20.46,13.53,47.59359,-54.27349
2022-02-21 16:24:00+00:00,233.0,15.08,237.0,21.13,13.53,47.59359,-54.27349
2022-02-21 16:34:00+00:00,242.0,15.76,249.0,20.13,13.53,47.59359,-54.27349
2022-02-21 16:44:00+00:00,222.0,11.39,228.0,15.16,13.53,47.59359,-54.27349
2022-02-21 16:54:00+00:00,223.0,11.07,230.0,14.04,13.53,47.59359,-54.27349
2022-02-21 17:04:00+00:00,216.0,12.19,214.0,14.88,13.53,47.59359,-54.27349
2022-02-21 17:14:01+00:00,220.0,12.76,239.0,18.84,13.37,47.59359,-54.27349
2022-02-21 17:24:01+00:00,224.0,10.46,225.0,13.49,13.37,47.59359,-54.27349
2022-02-21 17:34:01+00:00,221.0,11.43,228.0,13.61,13.37,47.59359,-54.27349
2022-02-21 17:44:01+00:00,228.0,11.8,242.0,19.49,13.37,47.59359,-54.27349
2022-02-21 17:54:01+00:00,226.0,12.14,243.0,18.62,13.37,47.59359,-54.27349
2022-02-21 18:04:01+00:00,228.0,13.51,235.0,18.91,13.37,47.59359,-54.27349
2022-02-21 18:14:01+00:00,233.0,11.84,243.0,17.16,13.44,47.59359,-54.27349
2022-02-21 18:24:01+00:00,231.0,13.43,243.0,19.95,13.44,47.59359,-54.27349
2022-02-21 18:34:01+00:00,230.0,12.25,236.0,18.73,13.44,47.59359,-54.27349
2022-02-21 18:44:01+00:00,230.0,10.31,237.0,13.79,13.44,47.59359,-54.27349
2022-02-21 18:54:01+00:00,238.0,13.78,245.0,18.91,13.44,47.59359,-54.27349
2022-02-21 19:04:01+00:00,233.0,12.19,248.0,19.6,13.44,47.59359,-54.27349
2022-02-21 19:14:00+00:00,236.0,11.46,237.0,14.23,12.97,47.59359,-54.27349
2022-02-21 19:24:00+00:00,250.0,16.66,251.0,19.92,12.97,47.59359,-54.27349
2022-02-21 19:34:00+00:00,253.0,12.09,263.0,18.32,12.97,47.59359,-54.27349
2022-02-21 19:44:00+00:00,244.0,13.89,253.0,18.67,12.97,47.59359,-54.27349
2022-02-21 19:54:00+00:00,247.0,14.42,251.0,19.77,12.97,47.59359,-54.27349
2022-02-21 20:04:00+00:00,248.0,13.49,253.0,19.16,12.97,47.59359,-54.27349
2022-02-21 20:14:00+00:00,249.0,12.34,257.0,17.39,12.73,47.59359,-54.27349
2022-02-21 20:24:00+00:00,250.0,15.89,249.0,18.72,12.73,47.59359,-54.27349
2022-02-21 20:34:00+00:00,248.0,14.37,250.0,18.74,12.73,47.59359,-54.27349
2022-02-21 20:44:00+00:00,248.0,11.17,251.0,12.48,12.73,47.59359,-54.27349
2022-02-21 20:54:00+00:00,248.0,13.9,253.0,18.32,12.73,47.59359,-54.27349
2022-02-21 21:04:00+00:00,247.0,12.62,256.0,18.56,12.73,47.59359,-54.27349
2022-02-21 21:14:00+00:00,241.0,13.5,247.0,17.9,12.57,47.59359,-54.27349
2022-02-21 21:24:00+00:00,242.0,11.86,251.0,16.46,12.57,47.59359,-54.27349
2022-02-21 21:34:00+00:00,241.0,12.78,246.0,14.31,12.57,47.59359,-54.27349
2022-02-21 21:44:00+00:00,239.0,11.21,242.0,13.25,12.57,47.59359,-54.27349
2022-02-21 21:54:00+00:00,248.0,13.75,253.0,18.09,12.57,47.59359,-54.27349
2022-02-21 22:04:00+00:00,252.0,12.05,257.0,17.0,12.57,47.59359,-54.27349
2022-02-21 22:14:01+00:00,250.0,13.7,257.0,18.45,12.49,47.59359,-54.27349
2022-02-21 22:24:01+00:00,245.0,11.13,242.0,13.24,12.49,47.59359,-54.27349
2022-02-21 22:34:01+00:00,254.0,11.37,253.0,13.33,12.49,47.59359,-54.27349
2022-02-21 22:44:01+00:00,254.0,11.72,257.0,14.84,12.49,47.59359,-54.27349
2022-02-21 22:54:01+00:00,254.0,10.36,262.0,12.71,12.49,47.59359,-54.27349
2022-02-21 23:04:01+00:00,258.0,11.17,258.0,14.82,12.49,47.59359,-54.27349
2022-02-21 23:14:01+00:00,249.0,10.64,243.0,12.79,12.49,47.59359,-54.27349
2022-02-21 23:24:01+00:00,243.0,9.74,241.0,11.25,12.49,47.59359,-54.27349
2022-02-21 23:34:01+00:00,243.0,9.6,246.0,11.8,12.49,47.59359,-54.27349
2022-02-21 23:44:01+00:00,241.0,8.98,238.0,10.1,12.49,47.59359,-54.27349
2022-02-21 23:54:01+00:00,242.0,11.85,247.0,16.61,12.49,47.59359,-54.27349
